This is the latest recevied weather packets stored in our database for station/object WH6VH. If no packets are shown the sender has not sent any weather packets the latest 10 day(s).
| Time | Temp. | Humidity | Pressure | Rain* | Wind** | Luminosity | Snow |
|---|---|---|---|---|---|---|---|
| 1777701907 | 7.78° C | 39% | 1023 hPa | 0 mm | - | - | - |
| 1777701005 | 8.33° C | 38% | 1023.1 hPa | 0 mm | - | - | - |
| 1777698005 | 8.33° C | 36% | 1023 hPa | 0 mm | - | - | - |
| 1777695005 | 7.78° C | 36% | 1022.7 hPa | 0 mm | - | - | - |
| 1777692606 | 8.33° C | 35% | 1022.2 hPa | 0 mm | - | - | - |
| 1777690505 | 9.44° C | 34% | 1021.8 hPa | 0 mm | - | - | - |
| 1777684806 | 13.33° C | 24% | 1021.1 hPa | 0 mm | - | - | - |
| 1777684205 | 13.89° C | 23% | 1021 hPa | 0 mm | - | - | - |
| 1777682405 | 14.44° C | 21% | 1020.9 hPa | 0 mm | - | - | - |
| 1777680305 | 16.11° C | 19% | 1020.9 hPa | 0 mm | - | - | - |
| 1777680005 | 16.11° C | 19% | 1021 hPa | 0 mm | - | - | - |
| 1777676706 | 16.11° C | 18% | 1021.1 hPa | 0 mm | - | - | - |
| 1777674906 | 15.56° C | 20% | 1021.4 hPa | 0 mm | - | - | - |
| 1777673105 | 16.11° C | 21% | 1021.6 hPa | 0 mm | - | - | - |
| 1777671004 | 16.11° C | 25% | 1022.1 hPa | 0 mm | - | - | - |
| 1777668303 | 15° C | 29% | 1022.6 hPa | 0 mm | - | - | - |
| 1777667403 | 13.89° C | 30% | 1022.7 hPa | 0 mm | - | - | - |
| 1777666803 | 15.56° C | 27% | 1022.7 hPa | 0 mm | - | - | - |
| 1777665904 | 15° C | 32% | 1022.8 hPa | 0 mm | - | - | - |
| 1777662604 | 14.44° C | 33% | 1023.2 hPa | 0 mm | - | - | - |
| 1777661703 | 13.33° C | 33% | 1023.4 hPa | 0 mm | - | - | - |
| 1777660804 | 12.78° C | 35% | 1023.6 hPa | 0 mm | - | - | - |
| 1777658705 | 12.78° C | 38% | 1023.9 hPa | 0 mm | - | - | - |
| 1777657503 | 11.11° C | 39% | 1024.2 hPa | 0 mm | - | - | - |
| 1777656604 | 12.22° C | 39% | 1024.3 hPa | 0 mm | - | - | - |
* Rain latest hour (hover to see other rain measurements)
** Current wind speed in m/s (hover to see current wind gust speed)